SCP
3 3 4 5 5 5 5 5 5 5 4 4 4 3 3 2 2 2 2 2 2 2 2 2 1 1 1 1 1 1 1 1 1 0 0 0 1 0 0 1 1 1 1
3 4 5 5 5 6 6 6 5 5 5 5 4 4 3 3 2 2 2 2 2 2 2 2 1 1 1 1 1 1 1 1 1 1 0 0 0 1 1 1 1 1 1
4 5 6 5 5 6 7 7 6 6 5 5 5 5 4 3 2 2 2 2 2 2 2 2 1 1 1 1 1 1 1 1 1 1 1 0 0 0 1 1 1 1 1
5 5 6 6 6 6 7 8 7 6 6 6 6 5 4 3 3 2 2 2 2 3 3 2 2 1 1 1 1 1 1 1 1 1 1 1 0 0 1 1 1 1 1
5 5 6 6 6 6 7 9 8 7 6 6 6 6 5 4 3 2 2 2 2 3 3 3 2 2 1 1 1 1 1 1 1 1 1 1 0 0 1 1 1 1 1
5 6 6 6 6 6 7 8 9 9 7 6 6 6 5 4 3 3 3 3 3 3 3 3 2 2 2 1 1 1 1 1 1 1 1 1 0 0 1 1 1 1 1
5 6 6 6 7 7 7 7 9 10 9 7 6 6 5 5 4 3 3 4 4 3 3 3 3 2 2 2 2 2 1 1 1 1 1 1 1 0 1 1 1 1 1
6 6 6 6 7 7 6 6 7 9 9 8 7 6 6 5 4 4 4 4 4 4 4 4 3 2 2 2 2 2 1 1 1 1 1 1 1 1 1 1 1 1 1
7 7 7 6 6 6 5 5 5 7 8 8 8 7 6 5 5 4 4 4 4 4 4 4 3 3 3 2 2 2 1 1 1 1 1 1 1 1 1 1 1 1 1
8 8 7 6 5 5 5 4 4 5 6 7 7 6 5 5 5 4 4 3 3 4 4 4 4 3 3 3 2 1 1 1 1 1 1 0 1 1 1 1 1 1 1
7 7 7 6 5 5 5 4 4 4 5 5 5 5 4 5 5 4 3 3 3 4 4 4 4 4 3 3 2 1 1 0 1 1 1 1 1 1 1 1 1 1 1
7 7 6 6 5 5 5 4 4 4 4 4 4 4 4 4 3 3 3 3 3 3 3 3 4 4 3 3 2 1 0 0 1 1 1 1 1 1 1 1 1 1 1
7 7 7 6 6 6 5 4 4 3 3 3 3 3 3 3 2 2 2 3 2 2 3 3 3 4 3 2 1 1 0 0 1 1 1 1 1 1 1 1 1 1 1
9 8 7 7 6 6 5 4 3 3 3 3 3 3 2 2 2 2 2 2 2 2 2 2 3 3 3 2 1 1 0 0 0 0 1 1 1 1 1 1 1 1 1
8 8 8 7 6 5 4 3 2 3 3 3 3 3 2 2 2 2 2 2 2 2 2 2 2 2 2 1 1 0 0 0 0 0 0 1 1 1 1 1 1 1 1
5 5 6 6 5 4 3 2 2 2 2 3 3 3 2 2 1 1 1 1 1 2 1 1 2 2 2 1 0 0 0 0 0 0 0 0 1 1 1 1 1 1 1
3 3 4 5 4 3 3 2 2 1 1 2 3 2 2 1 1 1 1 1 1 1 1 1 1 2 1 1 1 0 0 1 1 0 0 0 1 1 1 1 1 1 1
3 3 3 3 3 2 2 2 2 1 1 2 2 2 1 1 1 1 1 1 1 1 1 1 1 1 1 1 1 0 0 0 1 1 0 0 0 1 1 1 1 2 2
2 2 2 2 2 2 2 2 2 1 1 1 1 1 1 1 1 1 1 1 1 1 0 0 1 1 1 1 1 0 0 0 1 1 1 1 1 1 1 1 1 1 2
2 2 2 2 2 2 2 2 2 1 1 1 1 1 0 0 1 1 1 1 1 0 0 0 0 0 1 1 1 0 0 0 1 1 1 1 1 1 1 1 1 1 1
2 2 2 2 2 2 2 2 2 1 1 1 1 0 0 0 0 1 1 1 1 1 0 0 0 0 0 1 0 0 0 0 1 1 1 1 1 1 1 1 1 1 1
2 2 2 2 2 2 2 2 2 2 1 1 1 1 0 0 0 0 1 1 1 1 1 0 0 0 0 0 0 0 0 0 1 1 1 1 1 1 1 1 1 1 1
3 3 2 2 2 2 2 2 2 2 2 1 1 1 1 0 0 0 0 1 1 1 1 0 0 0 0 0 0 0 0 1 1 1 1 1 2 2 1 1 1 1 0
4 4 3 3 2 2 2 2 2 2 2 2 2 1 1 1 0 0 0 0 1 1 1 0 0 0 0 0 0 0 0 0 0 1 1 1 1 2 1 1 1 1 0
4 4 4 3 3 2 2 2 2 2 2 2 2 2 1 1 1 0 0 0 1 1 1 0 0 0 0 0 0 0 0 0 0 1 1 1 1 1 2 1 1 1 0
4 4 4 4 4 3 2 2 2 2 2 2 2 2 1 1 1 1 1 0 1 1 1 0 0 0 0 0 0 0 0 0 0 0 1 1 1 1 2 2 1 1 1
Wind_Speed
2 3 6 7 8 9 9 10 10 10 10 11 11 11 11 11 11 10 10 10 9 9 10 10 11 11 11 11 11 10 10 10 11 11 11 11 11 11 10 10 9 6 10
3 4 6 7 8 9 9 10 10 10 10 10 11 11 10 11 10 10 10 10 9 9 10 10 11 10 10 11 10 10 10 11 11 11 10 9 9 10 10 10 9 6 9
3 4 6 7 8 8 9 10 10 10 10 10 10 10 10 10 10 10 10 10 9 9 9 10 10 10 10 10 10 10 10 11 10 10 9 4 5 9 9 9 9 9 9
3 4 5 6 7 8 9 10 10 10 9 9 9 10 10 10 10 10 10 9 9 9 9 9 9 9 10 10 10 10 10 10 10 9 4 3 3 7 8 8 8 9 9
3 3 4 6 7 8 9 10 10 9 9 9 9 9 9 10 9 9 9 9 9 8 8 9 9 9 10 10 10 9 10 10 9 7 4 3 3 6 7 8 8 8 8
2 2 3 5 6 7 8 9 10 9 9 9 9 9 9 9 9 9 8 8 8 8 8 8 9 9 9 9 9 9 9 9 7 4 3 3 2 5 7 7 7 7 7
2 2 2 4 6 7 6 7 9 9 9 9 8 8 8 8 8 8 8 8 8 8 8 8 9 8 8 8 8 8 9 8 5 3 2 2 2 6 6 6 6 6 6
2 2 2 3 3 5 6 6 7 8 9 9 8 8 7 8 8 8 7 7 7 8 8 8 8 8 7 7 8 8 8 7 5 3 2 1 3 5 6 6 6 6 6
2 1 1 2 2 2 4 5 5 6 7 8 8 7 7 7 7 7 7 7 8 8 7 7 7 7 7 7 7 8 7 6 3 2 2 1 3 5 5 5 4 5 5
2 1 1 1 2 1 2 3 4 4 4 6 6 6 6 6 6 6 6 7 7 7 7 7 7 7 7 6 6 7 6 5 2 2 1 1 4 4 4 4 4 4 4
0 0 0 0 1 1 1 2 3 4 4 4 4 5 5 3 3 3 4 6 7 7 7 7 7 7 7 6 6 6 5 2 2 1 1 2 4 4 3 3 3 3 3
2 1 1 1 1 1 1 2 2 2 3 2 3 4 3 3 2 3 3 5 6 6 6 6 7 6 5 3 4 4 2 2 1 0 0 2 3 3 3 2 2 2 2
3 2 1 1 1 1 1 1 1 2 2 2 3 4 3 3 2 2 2 2 3 4 3 4 4 2 2 2 2 2 2 1 1 0 0 1 2 2 2 2 1 1 1
3 2 2 1 1 1 1 1 1 2 2 2 2 4 4 2 2 2 1 1 2 2 3 2 2 3 2 2 2 2 2 1 0 0 0 1 2 2 2 2 1 0 0
3 3 2 1 1 1 1 1 1 2 2 2 2 3 4 3 3 2 2 2 2 2 3 3 3 3 2 2 2 2 2 1 1 0 1 1 1 2 2 2 2 1 1
4 3 2 2 1 1 1 1 1 1 1 2 2 2 4 4 3 2 2 2 2 2 2 3 3 3 2 2 1 1 2 1 1 0 0 1 2 1 2 2 2 2 2
4 3 2 2 1 1 1 1 0 1 2 2 2 2 3 4 4 3 2 1 1 2 2 2 2 2 2 2 1 1 1 1 1 1 1 1 1 2 2 2 1 2 2
3 2 2 2 1 1 1 1 1 0 1 1 1 2 2 3 4 4 2 2 1 2 2 2 2 2 2 2 1 1 1 1 1 1 1 1 1 1 2 2 2 2 2
3 2 2 2 2 1 1 0 0 0 1 1 1 2 2 2 3 4 3 2 2 2 2 2 2 2 3 2 1 0 1 1 1 1 2 1 1 1 1 2 2 2 3
2 2 2 1 1 1 1 1 0 0 0 1 1 2 2 2 2 3 3 3 3 2 2 2 1 1 2 2 1 0 1 1 1 2 2 2 2 2 1 1 1 2 3
1 2 2 1 1 1 1 1 1 1 1 1 1 2 2 2 2 3 3 3 3 3 3 4 2 2 1 2 2 0 1 1 2 2 2 2 2 2 2 2 1 1 1
1 1 1 1 1 1 1 1 1 1 1 1 1 1 2 2 2 2 3 3 3 3 4 4 3 2 1 2 3 2 1 1 1 2 2 2 2 2 2 2 2 1 1
0 1 1 1 1 1 1 0 0 1 1 0 1 1 1 2 2 2 3 3 3 4 4 4 5 4 3 2 2 3 3 3 1 1 2 2 2 2 2 2 2 2 2
1 0 0 0 0 1 1 1 2 2 1 2 1 1 1 2 2 2 3 3 3 3 4 4 4 3 4 3 2 1 2 2 2 1 1 1 2 3 3 2 2 2 2
0 0 1 1 1 0 1 1 1 1 1 0 0 1 1 1 2 2 3 3 3 2 4 4 3 3 3 4 4 3 2 1 1 2 3 2 1 2 3 3 2 2 2
1 1 1 1 1 1 1 1 1 1 1 1 1 1 1 1 1 3 3 3 3 3 4 4 4 4 4 4 3 3 4 3 3 3 3 3 2 2 2 2 2 2 2
Wind_Direction
230 211 183 157 149 146 142 139 134 130 128 127 125 123 121 122 121 119 118 116 115 116 118 115 111 108 107 106 106 105 102 97 93 90 89 89 88 90 88 87 83 76 80
182 178 165 157 152 149 148 144 139 133 131 130 128 126 124 125 124 122 119 119 119 117 118 117 114 111 109 108 106 104 102 100 96 89 83 83 88 89 88 87 87 84 83
148 162 159 154 155 149 147 146 143 138 135 132 131 129 128 127 128 126 122 121 120 117 116 119 117 115 113 111 110 108 105 102 98 89 79 65 77 87 87 86 85 82 80
145 156 157 150 155 152 149 145 144 142 141 137 134 134 134 132 131 129 126 124 121 118 116 114 116 117 116 113 112 111 105 102 99 89 72 61 65 88 89 88 87 84 79
135 143 158 151 151 154 153 150 147 143 143 141 139 137 138 136 135 133 130 127 125 121 117 115 115 119 118 114 114 113 108 103 96 84 73 63 61 88 91 90 88 85 82
125 139 155 153 154 151 155 155 151 150 148 142 140 143 141 140 139 137 134 130 127 125 122 119 119 118 115 115 116 116 112 106 90 79 74 64 63 90 93 91 90 89 86
126 136 158 147 158 156 150 158 158 155 150 147 144 143 145 144 142 139 136 132 130 128 123 122 121 118 118 117 117 116 113 106 96 88 81 69 84 96 95 93 86 87 86
119 139 151 142 138 161 156 151 160 160 155 152 151 149 146 144 143 143 142 138 136 135 129 124 123 124 121 122 118 116 113 108 104 98 90 84 104 106 101 92 86 80 82
78 72 127 146 132 139 154 155 151 159 161 158 156 153 149 144 143 147 147 146 142 137 131 131 131 130 125 123 122 118 114 106 105 106 104 106 116 116 108 96 88 77 73
76 60 36 135 137 137 166 152 144 137 148 159 155 149 145 144 142 146 148 149 145 140 136 137 138 134 128 121 124 121 109 98 98 109 120 131 120 121 113 102 93 83 71
76 54 48 99 135 132 156 148 138 139 131 133 144 140 136 140 141 140 148 150 148 145 142 140 137 131 120 116 117 112 99 96 102 101 140 130 137 134 123 111 96 90 78
230 223 173 143 128 160 166 153 155 141 135 132 143 144 141 134 132 128 131 142 146 143 140 139 131 117 101 97 103 96 90 96 103 108 159 147 150 147 138 132 104 96 73
226 236 206 184 169 146 162 157 156 147 145 142 148 142 133 128 125 118 122 126 133 127 123 115 105 100 105 112 114 113 107 94 99 307 233 151 159 163 156 165 147 119 58
225 237 242 192 171 191 148 173 172 157 152 150 161 154 143 141 139 136 138 126 125 134 131 124 124 116 116 120 129 131 122 120 68 326 332 131 191 199 187 197 204 188 319
221 229 239 220 192 200 160 183 191 176 164 156 152 162 152 148 152 144 142 145 138 141 145 142 137 134 132 131 135 142 145 143 137 339 318 357 238 235 218 214 223 248 265
231 230 221 219 224 195 185 193 219 178 161 150 159 169 162 154 155 147 147 149 148 156 158 154 156 150 147 145 144 161 167 170 163 192 295 310 307 280 249 240 235 249 269
236 233 211 210 216 213 208 185 161 206 163 160 162 156 162 154 154 151 151 152 158 151 150 148 145 142 142 141 147 167 173 171 165 188 247 259 284 308 302 282 275 276 285
234 223 214 212 193 208 230 192 177 222 188 159 161 148 154 157 153 148 151 164 158 140 147 164 164 153 152 155 163 200 188 176 189 208 214 239 241 277 310 324 312 301 299
212 203 199 186 177 198 205 183 166 209 238 180 165 150 153 154 154 149 157 167 159 154 160 173 182 170 165 163 170 186 209 194 210 214 216 231 233 220 242 317 327 324 318
200 184 176 154 163 155 143 126 126 72 282 189 167 159 153 155 162 158 165 170 167 167 170 157 180 159 167 166 161 174 290 242 215 214 221 227 239 217 206 229 282 313 322
183 155 154 152 160 127 146 185 203 230 259 197 174 162 162 158 170 182 174 167 172 182 183 173 168 149 175 159 133 4 312 261 228 229 220 213 235 225 201 207 220 242 295
167 169 174 181 173 158 208 220 223 210 216 210 181 165 168 162 172 192 184 182 182 177 179 183 168 155 219 186 158 159 263 293 259 231 217 207 222 222 210 211 213 224 254
170 187 201 206 174 189 219 202 98 70 55 206 166 170 186 181 190 203 185 185 191 187 192 192 181 176 189 223 195 173 174 216 248 262 225 206 209 219 218 216 212 219 235
258 260 266 251 132 183 186 195 176 168 209 241 232 209 208 196 201 200 187 184 199 200 196 201 193 192 182 203 218 210 200 173 172 257 266 224 217 222 218 222 218 219 226
273 37 344 352 343 288 258 218 190 206 225 184 187 185 212 210 208 213 194 190 200 206 207 198 194 197 199 201 204 188 185 202 198 190 240 247 249 233 218 215 213 216 220
2 43 46 356 297 294 292 264 201 203 199 177 216 209 238 247 232 223 215 203 206 207 214 203 198 197 205 204 211 198 184 180 189 194 215 235 243 256 237 225 211 212 207